Location: Stoke Bliss
(52.2667°N, 2.5167°W)
Time: 21:35:25
(UTC+00:00)

Meteor 1-11 Rocket - Pass Details

Date: 03 March 2021
Orbit: 831 x 916 km, 81.2° (Epoch: 15 April)

Event Time Altitude Azimuth Distance (km) Brightness Sun altitude
Rises 19:25:15 0° 165° (SSE) 3,460 6.6 -14.8°
Reaches altitude 10° 19:27:51 10° 157° (SSE) 2,512 5.9 -15.2°
Maximum altitude 19:33:03 38° 92° (E) 1,289 4.1 -16.0°
Drops below altitude 10° 19:38:11 10° 26° (NNE) 2,480 6.0 -16.8°
Sets 19:40:43 0° 18° (NNE) 3,410 6.8 -17.1°
